This is the latest recevied weather packets stored in our database for station/object KI5RAB. If no packets are shown the sender has not sent any weather packets the latest 10 day(s).
| Time | Temp. | Humidity | Pressure | Rain* | Wind** | Luminosity | Snow |
|---|---|---|---|---|---|---|---|
| 1777392021 | 26.67° C | 85% | 1016.5 hPa | 0 mm | - | 221 W/m² | - |
| 1777391716 | 26.67° C | 86% | 1016.4 hPa | 0 mm | - | 120 W/m² | - |
| 1777391413 | 26.67° C | 86% | 1016.3 hPa | 0 mm | - | 159 W/m² | - |
| 1777391110 | 26.67° C | 86% | 1016.3 hPa | 0 mm | - | 125 W/m² | - |
| 1777390806 | 26.11° C | 86% | 1016.3 hPa | 0 mm | - | 117 W/m² | - |
| 1777390503 | 26.11° C | 87% | 1016.2 hPa | 0 mm | - | 121 W/m² | - |
| 1777390199 | 26.67° C | 86% | 1016.3 hPa | 0 mm | - | 91 W/m² | - |
| 1777389895 | 26.67° C | 85% | 1016.1 hPa | 0 mm | - | 100 W/m² | - |
| 1777389592 | 26.67° C | 85% | 1016.1 hPa | 0 mm | - | 205 W/m² | - |
| 1777389288 | 26.11° C | 87% | 1016.3 hPa | 0 mm | - | 304 W/m² | - |
| 1777388987 | 26.11° C | 87% | 1016.4 hPa | 0 mm | - | 123 W/m² | - |
| 1777388684 | 26.11° C | 87% | 1016.2 hPa | 0 mm | - | 83 W/m² | - |
| 1777388380 | 26.11° C | 88% | 1016.2 hPa | 0 mm | - | 152 W/m² | - |
| 1777388074 | 26.11° C | 87% | 1016.1 hPa | 0 mm | - | 100 W/m² | - |
| 1777387771 | 26.11° C | 87% | 1016 hPa | 0 mm | - | 124 W/m² | - |
| 1777387468 | 26.11° C | 87% | 1016.2 hPa | 0 mm | - | 137 W/m² | - |
| 1777387162 | 25.56° C | 88% | 1016 hPa | 0 mm | - | 153 W/m² | - |
| 1777386858 | 25.56° C | 89% | 1016.2 hPa | 0 mm | - | 121 W/m² | - |
| 1777386555 | 25.56° C | 89% | 1016 hPa | 0 mm | - | 98 W/m² | - |
| 1777386252 | 25.56° C | 89% | 1016.1 hPa | 0 mm | - | 110 W/m² | - |
| 1777385950 | 25.56° C | 90% | 1016.1 hPa | 0 mm | - | 91 W/m² | - |
| 1777385646 | 25.56° C | 90% | 1016.1 hPa | 0 mm | - | 73 W/m² | - |
| 1777385343 | 25° C | 90% | 1016 hPa | 0 mm | - | 86 W/m² | - |
| 1777385039 | 25° C | 90% | 1016.1 hPa | 0 mm | - | 87 W/m² | - |
| 1777384737 | 25° C | 90% | 1016.1 hPa | 0 mm | - | 85 W/m² | - |
* Rain latest hour (hover to see other rain measurements)
** Current wind speed in m/s (hover to see current wind gust speed)